Location: Chmeli�t?
(49.8978°N, 15.0526°E)
Time: 12:03:48
(UTC+00:00)

Meteor 1-27 - Pass Details

Date: 07 June 2020
Orbit: 836 x 893 km, 81.3° (Epoch: 13 July)

Event Time Altitude Azimuth Distance (km) Brightness Sun altitude
Rises 00:06:03 0° 349° (N) 3,401 8.5 -15.8°
Reaches altitude 10° 00:08:29 10° 352° (N) 2,463 7.7 -15.7°
Maximum altitude 00:14:02 67° 75° (ENE) 913 4.5 -15.4°
Enters shadow 00:19:00 13° 157° (SSE) 2,241 6.0 -15.2°
